カタログに戻る

CZ-6A DEB

運用中PO
NORAD 61141·DEBRIS·🇨🇳 China

打ち上げ Aug 6, 2024 から Taiyuan Satellite Launch Center

Loading…

次のパス (今後24時間)

TLE

最新Source: Space-Track

元期: Sep 14, 2026, 07:02 UTC

1 61141U 24140QK  26257.29355065  .00003564  00000-0  10207-2 0  9991
2 61141  88.4813 213.6128 0097824  82.6234 278.6072 14.42020438108262

AllMySatでCZ-6A DEBをリアルタイム追跡

Download on the App Store